• In Hungary
  • List of Countries
  • For 7 days
  • Water Temperature
  • Satellite Maps
  • Weather Map
  • News
  • Weather Widgets
  • user-avatar
    Login

    Hourly Weather Kouklia

    Today, 22 January, Monday

    Time Temperature Precipitation Wind Pressure Humidity
    00:00 +11°C° 0 mm 7 mps 747 mmHg 86%
    01:00 +11°C° 0 mm 6 mps 747 mmHg 86%
    02:00 +11°C° 0 mm 6 mps 745 mmHg 84%
    03:00 +11°C° 0 mm 6 mps 745 mmHg 84%
    04:00 +12°C° 0 mm 5 mps 745 mmHg 84%
    05:00 +12°C° 0 mm 5 mps 744 mmHg 84%
    06:00 +12°C° 0.1 mm 5 mps 744 mmHg 84%
    07:00 +13°C° 0.1 mm 6 mps 744 mmHg 84%
    08:00 +13°C° 0.1 mm 6 mps 744 mmHg 84%
    09:00 +14°C° 0.3 mm 7 mps 744 mmHg 81%
    10:00 +14°C° 0.3 mm 7 mps 744 mmHg 79%
    11:00 +15°C° 0.3 mm 8 mps 744 mmHg 77%
    12:00 +15°C° 0.7 mm 8 mps 744 mmHg 78%
    13:00 +15°C° 0.7 mm 8 mps 744 mmHg 80%
    14:00 +15°C° 0.7 mm 8 mps 744 mmHg 81%
    15:00 +13°C° 1.6 mm 8 mps 744 mmHg 85%
    16:00 +13°C° 1.6 mm 8 mps 743 mmHg 89%
    17:00 +13°C° 1.6 mm 8 mps 743 mmHg 93%
    18:00 +13°C° 2.7 mm 9 mps 743 mmHg 93%
    19:00 +13°C° 2.7 mm 10 mps 742 mmHg 93%
    20:00 +13°C° 2.7 mm 11 mps 742 mmHg 93%
    21:00 +13°C° 2.5 mm 10 mps 742 mmHg 91%
    22:00 +12°C° 2.5 mm 10 mps 742 mmHg 89%
    23:00 +12°C° 2.5 mm 10 mps 741 mmHg 87%

    Tomorrow, 23 January, Tuesday

    Time Temperature Precipitation Wind Pressure Humidity
    00:00 +12°C° 0.4 mm 10 mps 741 mmHg 87%
    01:00 +11°C° 0.4 mm 10 mps 741 mmHg 87%
    02:00 +11°C° 0.4 mm 10 mps 741 mmHg 86%
    03:00 +11°C° 0.5 mm 10 mps 742 mmHg 87%
    04:00 +11°C° 0.5 mm 11 mps 742 mmHg 88%
    05:00 +11°C° 0.5 mm 11 mps 742 mmHg 88%
    06:00 +12°C° 0.8 mm 11 mps 742 mmHg 88%
    07:00 +12°C° 0.8 mm 10 mps 743 mmHg 88%
    08:00 +12°C° 0.8 mm 10 mps 743 mmHg 88%
    09:00 +13°C° 0.2 mm 9 mps 744 mmHg 84%
    10:00 +13°C° 0.2 mm 8 mps 744 mmHg 80%
    11:00 +15°C° 0.2 mm 7 mps 745 mmHg 76%
    12:00 +15°C° 0 mm 7 mps 745 mmHg 74%
    13:00 +15°C° 0 mm 7 mps 745 mmHg 72%
    14:00 +16°C° 0 mm 6 mps 746 mmHg 71%
    15:00 +15°C° 0.1 mm 6 mps 746 mmHg 75%
    16:00 +14°C° 0.1 mm 6 mps 746 mmHg 79%
    17:00 +14°C° 0.1 mm 5 mps 747 mmHg 83%
    18:00 +13°C° 0.1 mm 5 mps 747 mmHg 85%
    19:00 +13°C° 0.1 mm 4 mps 747 mmHg 88%
    20:00 +13°C° 0.1 mm 4 mps 748 mmHg 91%
    21:00 +13°C° 0.1 mm 4 mps 748 mmHg 91%
    22:00 +13°C° 0.1 mm 4 mps 748 mmHg 91%
    23:00 +13°C° 0.1 mm 4 mps 748 mmHg 91%

    Day after tomorrow, 24 January, Wednesday

    Time Temperature Precipitation Wind Pressure Humidity
    00:00 +13°C° 0.3 mm 4 mps 748 mmHg 91%
    01:00 +13°C° 0.3 mm 3 mps 748 mmHg 91%
    02:00 +12°C° 0.3 mm 3 mps 748 mmHg 91%
    03:00 +12°C° 0.3 mm 3 mps 748 mmHg 91%
    04:00 +13°C° 0.3 mm 2 mps 748 mmHg 91%
    05:00 +13°C° 0.3 mm 2 mps 748 mmHg 91%
    06:00 +13°C° 0.3 mm 2 mps 748 mmHg 90%
    07:00 +13°C° 0.3 mm 2 mps 749 mmHg 90%
    08:00 +13°C° 0.3 mm 2 mps 749 mmHg 89%
    09:00 +13°C° 0.4 mm 2 mps 749 mmHg 88%
    10:00 +12°C° 0.4 mm 3 mps 750 mmHg 87%
    11:00 +12°C° 0.4 mm 3 mps 750 mmHg 86%
    12:00 +12°C° 0.5 mm 3 mps 749 mmHg 87%
    13:00 +11°C° 0.5 mm 3 mps 749 mmHg 87%
    14:00 +11°C° 0.5 mm 3 mps 749 mmHg 88%
    15:00 +11°C° 0.9 mm 3 mps 749 mmHg 88%
    16:00 +10°C° 0.9 mm 3 mps 749 mmHg 88%
    17:00 +10°C° 0.9 mm 3 mps 749 mmHg 89%
    18:00 +10°C° 0.9 mm 4 mps 749 mmHg 89%
    19:00 +10°C° 0.9 mm 4 mps 749 mmHg 89%
    20:00 +8°C° 0.9 mm 5 mps 749 mmHg 89%
    21:00 +8°C° 0.6 mm 5 mps 749 mmHg 88%
    22:00 +8°C° 0.6 mm 5 mps 749 mmHg 88%
    23:00 +8°C° 0.6 mm 5 mps 749 mmHg 87%

    25 January, Thursday

    Time Temperature Precipitation Wind Pressure Humidity
    00:00 +8°C° 0.7 mm 5 mps 749 mmHg 87%
    01:00 +8°C° 0.7 mm 5 mps 748 mmHg 87%
    02:00 +8°C° 0.7 mm 5 mps 748 mmHg 87%
    03:00 +8°C° 1.1 mm 5 mps 748 mmHg 87%
    04:00 +8°C° 1.1 mm 5 mps 748 mmHg 88%
    05:00 +8°C° 1.1 mm 5 mps 747 mmHg 88%
    06:00 +8°C° 0.9 mm 5 mps 747 mmHg 87%
    07:00 +8°C° 0.9 mm 5 mps 748 mmHg 86%
    08:00 +8°C° 0.9 mm 5 mps 748 mmHg 84%
    09:00 +8°C° 0.4 mm 5 mps 748 mmHg 82%
    10:00 +8°C° 0.4 mm 5 mps 748 mmHg 80%
    11:00 +8°C° 0.4 mm 5 mps 748 mmHg 77%
    12:00 +8°C° 0.2 mm 4 mps 748 mmHg 76%
    13:00 +8°C° 0.2 mm 4 mps 747 mmHg 74%
    14:00 +8°C° 0.2 mm 4 mps 747 mmHg 73%
    15:00 +8°C° 0.1 mm 4 mps 747 mmHg 74%
    16:00 +8°C° 0.1 mm 4 mps 747 mmHg 75%
    17:00 +8°C° 0.1 mm 3 mps 747 mmHg 76%
    18:00 +8°C° 0.1 mm 3 mps 747 mmHg 75%
    19:00 +8°C° 0.1 mm 3 mps 747 mmHg 74%
    20:00 +8°C° 0.1 mm 3 mps 748 mmHg 73%
    21:00 +8°C° 0.1 mm 3 mps 748 mmHg 72%
    22:00 +8°C° 0.1 mm 3 mps 748 mmHg 71%
    23:00 +8°C° 0.1 mm 3 mps 747 mmHg 70%

    26 January, Friday

    Time Temperature Precipitation Wind Pressure Humidity
    00:00 +8°C° 0.1 mm 3 mps 747 mmHg 71%
    01:00 +7°C° 0.1 mm 2 mps 747 mmHg 71%
    02:00 +7°C° 0.1 mm 2 mps 747 mmHg 72%
    03:00 +7°C° 0.4 mm 2 mps 747 mmHg 72%
    04:00 +7°C° 0.4 mm 2 mps 747 mmHg 71%
    05:00 +8°C° 0.4 mm 3 mps 746 mmHg 71%
    06:00 +8°C° 0.6 mm 3 mps 747 mmHg 73%
    07:00 +8°C° 0.6 mm 3 mps 747 mmHg 74%
    08:00 +7°C° 0.6 mm 4 mps 747 mmHg 75%
    09:00 +7°C° 0.5 mm 4 mps 747 mmHg 75%
    10:00 +7°C° 0.5 mm 4 mps 747 mmHg 75%
    11:00 +7°C° 0.5 mm 4 mps 747 mmHg 75%
    12:00 +7°C° 0.6 mm 5 mps 747 mmHg 76%
    13:00 +7°C° 0.6 mm 5 mps 747 mmHg 77%
    14:00 +7°C° 0.6 mm 5 mps 747 mmHg 78%
    15:00 +7°C° 0.4 mm 5 mps 747 mmHg 79%
    16:00 +7°C° 0.4 mm 5 mps 748 mmHg 80%
    17:00 +7°C° 0.4 mm 5 mps 748 mmHg 81%
    18:00 +7°C° 0 mm 5 mps 749 mmHg 77%
    19:00 +7°C° 0 mm 5 mps 749 mmHg 74%
    20:00 +7°C° 0 mm 5 mps 750 mmHg 71%
    21:00 +7°C° 0 mm 5 mps 750 mmHg 71%
    22:00 +7°C° 0 mm 5 mps 750 mmHg 71%
    23:00 +7°C° 0 mm 5 mps 751 mmHg 71%

    27 January, Saturday

    Time Temperature Precipitation Wind Pressure Humidity
    00:00 +7°C° 0 mm 5 mps 751 mmHg 71%
    01:00 +7°C° 0 mm 5 mps 751 mmHg 72%
    02:00 +6°C° 0 mm 5 mps 751 mmHg 73%
    03:00 +6°C° 0 mm 5 mps 751 mmHg 73%
    04:00 +6°C° 0 mm 5 mps 752 mmHg 73%
    05:00 +6°C° 0 mm 5 mps 752 mmHg 74%
    06:00 +7°C° 0 mm 5 mps 752 mmHg 74%
    07:00 +7°C° 0 mm 4 mps 753 mmHg 74%
    08:00 +8°C° 0 mm 4 mps 753 mmHg 74%
    09:00 +10°C° 0 mm 4 mps 753 mmHg 72%
    10:00 +11°C° 0 mm 4 mps 754 mmHg 70%
    11:00 +13°C° 0 mm 4 mps 754 mmHg 67%
    12:00 +13°C° 0 mm 4 mps 754 mmHg 67%
    13:00 +13°C° 0 mm 5 mps 754 mmHg 66%
    14:00 +13°C° 0 mm 5 mps 754 mmHg 65%
    15:00 +12°C° 0 mm 5 mps 754 mmHg 68%
    16:00 +11°C° 0 mm 4 mps 755 mmHg 70%
    17:00 +10°C° 0 mm 4 mps 755 mmHg 73%
    18:00 +10°C° 0 mm 4 mps 755 mmHg 75%
    19:00 +9°C° 0 mm 3 mps 755 mmHg 76%
    20:00 +9°C° 0 mm 3 mps 756 mmHg 78%
    21:00 +9°C° 0 mm 3 mps 756 mmHg 79%
    22:00 +9°C° 0 mm 3 mps 756 mmHg 79%
    23:00 +8°C° 0 mm 3 mps 756 mmHg 80%
    Show more